When you browse on this site, cookies collect data to enhance your experience and personalize the content and advertising you see.
Visit our Privacy Policy to learn more. By continuing to use the site, you agree to this use of cookies and data.
  • en Suisse
  • Liste des pays
  • À 7 jours
  • Température de l'eau
  • Carte météo
  • Widgets météo
  • user-avatar
    Se connecter

    Météo par heure à Maidstone

    Ce jour, 5 Décembre, Jeudi

    Heure Température Précipitation Vent Pression Humidité
    00:00 +3°C° 0 mm 1 m/s 763 mmHg 89%
    01:00 +2°C° 0 mm 2 m/s 763 mmHg 89%
    02:00 +2°C° 0 mm 2 m/s 763 mmHg 90%
    03:00 +1°C° 0 mm 2 m/s 762 mmHg 90%
    04:00 +1°C° 0 mm 2 m/s 763 mmHg 90%
    05:00 +1°C° 0 mm 2 m/s 763 mmHg 90%
    06:00 +2°C° 0 mm 2 m/s 763 mmHg 90%
    07:00 +2°C° 0 mm 2 m/s 763 mmHg 90%
    08:00 +2°C° 0 mm 2 m/s 763 mmHg 91%
    09:00 +2°C° 0 mm 3 m/s 763 mmHg 91%
    10:00 +3°C° 0 mm 3 m/s 763 mmHg 89%
    11:00 +5°C° 0 mm 4 m/s 763 mmHg 87%
    12:00 +6°C° 0 mm 4 m/s 763 mmHg 84%
    13:00 +6°C° 0 mm 5 m/s 762 mmHg 86%
    14:00 +6°C° 0 mm 5 m/s 761 mmHg 87%
    15:00 +7°C° 0 mm 5 m/s 761 mmHg 89%
    16:00 +7°C° 0 mm 6 m/s 760 mmHg 87%
    17:00 +7°C° 0 mm 6 m/s 760 mmHg 85%
    18:00 +6°C° 0 mm 7 m/s 760 mmHg 83%
    19:00 +6°C° 0.1 mm 7 m/s 759 mmHg 81%
    20:00 +6°C° 0.1 mm 8 m/s 759 mmHg 79%
    21:00 +7°C° 0.1 mm 9 m/s 759 mmHg 78%
    22:00 +7°C° 0 mm 9 m/s 758 mmHg 79%
    23:00 +7°C° 0 mm 9 m/s 758 mmHg 80%

    Demain, 6 Décembre, Vendredi

    Heure Température Précipitation Vent Pression Humidité
    00:00 +8°C° 0 mm 9 m/s 758 mmHg 81%
    01:00 +8°C° 0.3 mm 9 m/s 757 mmHg 84%
    02:00 +8°C° 0.3 mm 9 m/s 756 mmHg 87%
    03:00 +8°C° 0.3 mm 9 m/s 755 mmHg 90%
    04:00 +10°C° 0.2 mm 9 m/s 755 mmHg 90%
    05:00 +10°C° 0.2 mm 9 m/s 755 mmHg 90%
    06:00 +10°C° 0.2 mm 9 m/s 755 mmHg 90%
    07:00 +10°C° 0.2 mm 9 m/s 754 mmHg 90%
    08:00 +10°C° 0.2 mm 9 m/s 754 mmHg 90%
    09:00 +11°C° 0.2 mm 9 m/s 753 mmHg 90%
    10:00 +11°C° 0.6 mm 10 m/s 753 mmHg 90%
    11:00 +11°C° 0.6 mm 10 m/s 752 mmHg 91%
    12:00 +11°C° 0.6 mm 10 m/s 752 mmHg 91%
    13:00 +11°C° 0.2 mm 9 m/s 751 mmHg 89%
    14:00 +11°C° 0.2 mm 8 m/s 750 mmHg 87%
    15:00 +11°C° 0.2 mm 7 m/s 750 mmHg 84%
    16:00 +10°C° 0.3 mm 7 m/s 750 mmHg 82%
    17:00 +10°C° 0.3 mm 8 m/s 750 mmHg 80%
    18:00 +9°C° 0.3 mm 8 m/s 750 mmHg 78%
    19:00 +8°C° 0 mm 7 m/s 751 mmHg 80%
    20:00 +8°C° 0 mm 7 m/s 752 mmHg 82%
    21:00 +6°C° 0 mm 7 m/s 753 mmHg 83%
    22:00 +7°C° 0 mm 6 m/s 754 mmHg 85%
    23:00 +5°C° 0 mm 6 m/s 754 mmHg 87%

    Après-demain, 7 Décembre, Samedi

    Heure Température Précipitation Vent Pression Humidité
    00:00 +6°C° 0 mm 5 m/s 755 mmHg 89%
    01:00 +6°C° 0 mm 5 m/s 755 mmHg 90%
    02:00 +6°C° 0 mm 5 m/s 756 mmHg 91%
    03:00 +5°C° 0 mm 5 m/s 756 mmHg 92%
    04:00 +5°C° 0 mm 5 m/s 756 mmHg 92%
    05:00 +5°C° 0 mm 5 m/s 757 mmHg 92%
    06:00 +5°C° 0 mm 4 m/s 757 mmHg 92%
    07:00 +5°C° 0 mm 4 m/s 757 mmHg 92%
    08:00 +5°C° 0 mm 4 m/s 758 mmHg 92%
    09:00 +5°C° 0 mm 4 m/s 758 mmHg 92%
    10:00 +6°C° 0 mm 4 m/s 758 mmHg 87%
    11:00 +7°C° 0 mm 5 m/s 759 mmHg 82%
    12:00 +8°C° 0 mm 5 m/s 759 mmHg 78%
    13:00 +8°C° 0 mm 5 m/s 758 mmHg 79%
    14:00 +8°C° 0 mm 4 m/s 758 mmHg 81%
    15:00 +8°C° 0 mm 4 m/s 758 mmHg 83%
    16:00 +7°C° 0 mm 4 m/s 758 mmHg 85%
    17:00 +6°C° 0 mm 4 m/s 758 mmHg 88%
    18:00 +6°C° 0 mm 5 m/s 758 mmHg 91%
    19:00 +6°C° 0 mm 5 m/s 757 mmHg 91%
    20:00 +7°C° 0 mm 6 m/s 757 mmHg 91%
    21:00 +7°C° 0 mm 6 m/s 756 mmHg 92%
    22:00 +8°C° 0 mm 7 m/s 755 mmHg 90%
    23:00 +8°C° 0 mm 9 m/s 754 mmHg 89%

    8 Décembre, Dimanche

    Heure Température Précipitation Vent Pression Humidité
    00:00 +8°C° 0 mm 10 m/s 753 mmHg 88%
    01:00 +8°C° 0.8 mm 10 m/s 752 mmHg 89%
    02:00 +8°C° 0.8 mm 11 m/s 751 mmHg 90%
    03:00 +8°C° 0.8 mm 11 m/s 750 mmHg 91%
    04:00 +9°C° 0.4 mm 10 m/s 750 mmHg 91%
    05:00 +11°C° 0.4 mm 9 m/s 749 mmHg 91%
    06:00 +12°C° 0.4 mm 8 m/s 749 mmHg 91%
    07:00 +10°C° 0 mm 8 m/s 750 mmHg 86%
    08:00 +9°C° 0 mm 7 m/s 750 mmHg 82%
    09:00 +7°C° 0 mm 6 m/s 751 mmHg 77%
    10:00 +8°C° 0 mm 7 m/s 751 mmHg 74%
    11:00 +7°C° 0 mm 8 m/s 751 mmHg 72%
    12:00 +8°C° 0 mm 9 m/s 751 mmHg 70%
    13:00 +7°C° 0.4 mm 9 m/s 750 mmHg 73%
    14:00 +7°C° 0.4 mm 9 m/s 750 mmHg 76%
    15:00 +6°C° 0.4 mm 10 m/s 749 mmHg 79%
    16:00 +6°C° 0.3 mm 9 m/s 749 mmHg 79%
    17:00 +5°C° 0.3 mm 9 m/s 749 mmHg 78%
    18:00 +5°C° 0.3 mm 8 m/s 749 mmHg 78%
    19:00 +5°C° 0 mm 9 m/s 748 mmHg 78%
    20:00 +5°C° 0 mm 10 m/s 748 mmHg 78%
    21:00 +3°C° 0 mm 11 m/s 747 mmHg 78%
    22:00 +4°C° 0 mm 11 m/s 747 mmHg 78%
    23:00 +4°C° 0 mm 11 m/s 746 mmHg 77%

    9 Décembre, Lundi

    Heure Température Précipitation Vent Pression Humidité
    00:00 +4°C° 0 mm 12 m/s 745 mmHg 77%
    01:00 +4°C° 0 mm 12 m/s 745 mmHg 76%
    02:00 +5°C° 0 mm 12 m/s 745 mmHg 76%
    03:00 +5°C° 0 mm 12 m/s 744 mmHg 75%
    04:00 +5°C° 0.1 mm 12 m/s 745 mmHg 74%
    05:00 +5°C° 0.1 mm 12 m/s 745 mmHg 72%
    06:00 +5°C° 0.1 mm 12 m/s 745 mmHg 71%
    07:00 +5°C° 0 mm 13 m/s 746 mmHg 69%
    08:00 +5°C° 0 mm 13 m/s 748 mmHg 68%
    09:00 +7°C° 0 mm 13 m/s 749 mmHg 67%
    10:00 +7°C° 0 mm 13 m/s 751 mmHg 64%
    11:00 +7°C° 0 mm 12 m/s 753 mmHg 61%
    12:00 +7°C° 0 mm 12 m/s 755 mmHg 58%
    13:00 +7°C° 0 mm 10 m/s 756 mmHg 59%
    14:00 +6°C° 0 mm 9 m/s 757 mmHg 60%
    15:00 +6°C° 0 mm 8 m/s 759 mmHg 62%
    16:00 +6°C° 0 mm 7 m/s 760 mmHg 64%
    17:00 +5°C° 0 mm 6 m/s 761 mmHg 67%
    18:00 +5°C° 0 mm 5 m/s 762 mmHg 69%
    19:00 +5°C° 0 mm 5 m/s 762 mmHg 72%
    20:00 +5°C° 0 mm 5 m/s 763 mmHg 75%
    21:00 +4°C° 0 mm 4 m/s 763 mmHg 78%
    22:00 +4°C° 0 mm 4 m/s 763 mmHg 81%
    23:00 +4°C° 0 mm 3 m/s 763 mmHg 83%

    10 Décembre, Mardi

    Heure Température Précipitation Vent Pression Humidité
    00:00 +3°C° 0 mm 3 m/s 763 mmHg 86%
    01:00 +4°C° 0 mm 3 m/s 762 mmHg 86%
    02:00 +4°C° 0 mm 3 m/s 762 mmHg 86%
    03:00 +5°C° 0 mm 3 m/s 761 mmHg 87%
    04:00 +6°C° 0.8 mm 5 m/s 760 mmHg 88%
    05:00 +7°C° 0.8 mm 6 m/s 759 mmHg 90%
    06:00 +7°C° 0.8 mm 8 m/s 758 mmHg 91%
    07:00 +7°C° 1.2 mm 9 m/s 756 mmHg 91%
    08:00 +7°C° 1.2 mm 10 m/s 755 mmHg 91%
    09:00 +7°C° 1.2 mm 12 m/s 753 mmHg 92%
    10:00 +8°C° 1 mm 11 m/s 752 mmHg 92%
    11:00 +9°C° 1 mm 11 m/s 751 mmHg 92%
    12:00 +11°C° 1 mm 11 m/s 750 mmHg 92%
    13:00 +12°C° 0.1 mm 12 m/s 749 mmHg 90%
    14:00 +12°C° 0.1 mm 12 m/s 748 mmHg 89%
    15:00 +12°C° 0.1 mm 12 m/s 747 mmHg 88%
    16:00 +12°C° 0.2 mm 13 m/s 746 mmHg 87%
    17:00 +12°C° 0.2 mm 13 m/s 745 mmHg 87%
    18:00 +12°C° 0.2 mm 14 m/s 745 mmHg 87%
    19:00 +9°C° 0.3 mm 12 m/s 746 mmHg 82%
    20:00 +8°C° 0.3 mm 11 m/s 747 mmHg 78%
    21:00 +6°C° 0.3 mm 10 m/s 748 mmHg 73%
    22:00 +6°C° 0 mm 9 m/s 748 mmHg 73%
    23:00 +5°C° 0 mm 8 m/s 749 mmHg 73%
    Voir plus